Lid_Strength_Index
1 1 1 0 0 -0 -0 -1 -1 -1 -1 -1 -1 -1 -1 -1 0 3 6 4 2 -1 1 3 4 4 3 4 5 6 8 10 10 9 8 7 7 7 7 7 6 7 6 7 6
1 1 1 1 1 0 -0 -0 -0 -1 -1 -1 -1 -1 -1 -1 3 6 1 -2 -2 -1 4 5 5 5 5 5 5 6 8 10 9 8 8 7 7 7 7 7 8 7 7 7 6
1 1 1 1 1 1 0 -0 -0 -0 -1 -1 -1 -1 -0 0 5 6 -1 -2 -2 1 4 4 4 5 7 6 6 7 9 9 9 8 7 7 7 7 7 8 8 8 8 8 7
0 1 1 1 1 1 0 0 -0 -0 -0 -1 -1 -0 0 3 9 4 -1 -1 -1 3 4 5 6 7 8 8 7 9 8 8 7 7 7 8 7 8 8 9 9 8 8 8 8
0 1 1 1 1 1 1 0 -0 -0 -0 -1 -1 -0 3 5 5 1 -1 -1 3 4 5 6 7 7 9 8 8 8 8 8 7 7 7 8 8 8 10 9 9 9 9 9 9
0 0 1 1 1 1 1 0 -0 -0 -0 -1 -1 0 4 7 2 0 2 4 4 4 6 5 7 7 8 8 9 8 8 8 8 8 8 9 9 9 10 9 10 10 10 10 11
-0 0 0 1 1 1 1 0 0 -0 -0 -1 -0 2 5 4 1 1 4 4 4 5 6 6 5 7 7 9 8 8 9 8 8 9 9 8 11 11 10 9 11 11 11 11 11
-0 0 0 0 1 0 0 0 0 0 -0 -0 1 4 6 4 1 2 3 5 4 4 5 5 5 6 7 8 9 9 10 10 9 9 10 9 10 11 10 10 11 11 11 12 12
0 0 0 0 0 1 1 0 0 -0 0 1 3 5 7 3 5 3 4 5 5 5 5 6 5 7 8 9 11 11 11 11 10 9 10 10 11 11 10 10 11 11 12 12 12
1 1 1 1 1 1 0 -0 -0 1 2 2 3 6 6 7 6 5 5 5 6 6 7 7 8 9 10 10 12 11 12 12 11 10 10 10 10 11 11 11 11 12 12 13 13
2 1 1 1 1 1 1 2 5 6 5 6 6 7 7 7 6 7 6 7 7 8 10 9 11 12 10 9 9 10 11 11 10 10 11 10 10 11 12 12 12 12 13 13 14
2 2 1 1 2 2 2 5 5 6 8 6 6 7 6 7 9 8 7 8 9 10 11 12 13 10 9 10 11 12 12 12 11 11 11 11 11 11 12 12 12 13 13 14 14
1 2 1 2 2 2 3 4 4 5 7 7 7 7 7 8 9 9 8 9 10 12 12 12 11 11 11 12 12 12 13 12 12 12 11 12 12 14 14 13 14 14 13 14 14
1 1 1 2 4 4 5 3 4 4 10 9 9 7 8 7 9 8 7 9 12 12 12 12 11 13 13 13 12 13 12 12 13 14 14 12 15 14 14 16 15 15 15 15 16
1 1 1 1 4 5 4 2 3 5 20 9 9 8 9 9 10 11 8 9 11 12 12 12 14 13 13 13 13 13 13 13 13 14 14 15 16 13 16 17 16 16 15 15 15
1 1 1 2 3 3 2 2 3 13 19 11 10 11 11 10 11 10 10 9 10 12 12 12 12 12 12 13 12 13 13 14 14 14 17 14 15 13 16 15 15 15 15 15 16
0 1 1 1 4 3 1 3 13 17 10 12 12 11 11 12 12 12 12 12 13 15 14 13 13 12 12 13 13 13 13 16 18 18 18 16 16 13 13 14 14 15 15 15 15
0 1 1 1 2 2 2 9 18 13 12 11 12 12 12 12 12 13 13 13 12 12 13 14 15 13 12 11 12 14 12 16 21 20 16 17 18 14 15 14 13 14 14 15 16
0 1 1 1 2 1 7 15 15 12 9 11 13 13 13 13 12 13 13 12 12 12 14 14 14 13 13 12 11 14 16 12 16 20 18 15 15 14 15 15 14 14 15 15 16
2 3 3 1 1 3 9 13 11 8 9 10 12 11 13 13 14 13 13 11 11 11 10 12 14 14 13 12 12 12 11 16 15 21 21 16 16 14 17 16 15 15 15 15 16
2 6 2 1 2 7 13 12 10 7 7 10 11 11 11 14 13 14 11 11 11 12 10 11 13 15 14 15 14 15 15 14 13 15 18 18 16 13 13 14 15 15 14 15 15
4 9 2 1 9 9 11 10 8 9 7 9 9 10 11 12 14 13 12 10 10 11 13 11 13 16 15 14 13 12 13 14 16 18 16 16 15 14 14 13 14 14 14 14 14
6 6 2 2 12 11 9 9 8 9 9 10 11 9 9 11 14 12 11 9 11 11 12 11 15 18 16 15 14 15 14 13 12 14 16 17 15 14 14 14 13 13 13 13 14
6 10 7 6 7 9 11 11 11 8 9 8 10 9 11 12 10 12 12 11 10 11 10 9 14 15 17 14 13 15 14 14 14 16 15 15 13 15 15 14 14 13 13 13 13
7 10 9 11 10 9 9 10 11 12 8 8 10 10 11 14 13 13 11 12 11 10 10 11 16 14 15 15 15 15 14 14 15 14 15 13 13 13 13 13 13 12 12 13 13
9 9 9 11 11 11 10 11 11 10 10 11 11 10 10 12 12 13 12 13 13 12 12 12 15 15 15 15 14 15 14 14 14 13 13 13 13 10 10 12 11 12 12 13 13
6 7 8 9 12 12 11 10 10 9 9 8 9 10 11 10 8 8 9 10 11 13 13 15 15 15 17 16 16 17 15 14 13 12 13 14 12 11 13 12 11 10 11 12 12